Theta_e
294 295 295 296 293 291 290 289 289 287 288 288 287 287 290 289 286 285 290 290 289 292 293 292 291 291 291 291 290 290 291 291 291 290 290 290 290 290 289 289 289 288 287 287 286 285 285 284 283 283 283 283 283 282 282 282 282 281 281 280 280 280 279 279 279 278 278 278 279 279 280 280 280 280 279 279 278 278 277 277 277 276 276 275 274 273 273
291 292 293 294 293 293 292 290 290 290 288 288 288 288 290 289 289 291 291 290 290 294 293 293 293 293 293 293 292 291 290 290 290 290 289 289 290 289 290 290 290 290 289 287 287 286 285 285 284 283 283 283 283 283 282 282 282 281 281 280 280 279 279 279 279 279 279 280 280 280 280 280 280 280 279 278 277 277 277 277 277 276 276 274 273 273 273
288 291 292 291 291 291 289 291 291 291 290 289 289 289 289 289 289 290 291 289 289 295 295 292 294 294 291 290 289 289 289 289 289 289 289 289 289 290 290 290 290 290 288 287 287 287 287 286 285 284 284 283 283 283 283 282 282 281 281 280 280 279 279 279 279 279 279 279 280 280 280 281 280 279 278 278 277 277 277 276 276 275 275 274 273 273 273
286 289 289 289 289 289 288 289 289 290 289 287 287 287 290 288 287 288 288 287 288 294 297 293 292 292 291 291 290 290 290 289 288 288 288 288 288 289 290 290 289 288 287 288 288 288 288 286 285 284 284 284 283 283 283 282 282 281 281 280 280 279 279 279 279 279 280 280 281 281 281 281 280 279 278 278 277 277 276 276 275 274 273 272 272 272 272
285 289 288 287 288 287 285 286 289 291 291 291 292 292 291 291 291 288 286 287 293 293 291 289 288 290 290 290 290 289 289 288 288 288 288 289 288 289 289 288 288 288 288 289 289 289 288 286 285 285 285 283 283 283 283 282 282 281 280 280 280 279 279 279 279 280 280 281 281 281 281 281 280 279 278 278 277 276 275 275 273 272 272 272 271 271 271
285 288 287 286 284 278 281 292 295 295 291 291 289 290 291 292 292 291 293 290 289 289 289 290 288 288 290 292 292 291 290 288 288 288 288 289 289 289 288 288 288 289 288 288 288 288 288 287 286 285 284 284 284 283 283 282 281 281 280 280 280 280 280 280 280 280 280 280 281 281 281 280 279 278 277 276 276 274 273 272 272 271 270 271 271 271 271
285 286 285 282 277 281 290 287 288 292 295 294 291 292 293 293 292 292 291 290 288 290 291 292 291 291 291 290 290 290 290 290 290 289 289 289 289 289 288 288 288 288 287 286 286 286 287 286 285 285 284 284 283 282 282 282 282 281 281 280 280 280 280 280 280 280 280 280 280 280 280 279 278 277 276 274 274 273 272 272 272 271 271 270 270 270 269
283 281 283 277 279 287 286 287 284 286 289 289 289 289 292 293 293 292 291 293 290 289 289 288 288 289 288 288 288 289 289 290 290 289 290 289 289 288 288 288 287 287 286 287 286 286 286 286 286 285 284 283 283 282 282 282 282 281 281 280 280 280 280 279 280 280 280 280 279 279 278 277 276 276 275 274 273 273 272 271 269 269 268 269 269 269 269
281 283 283 283 288 287 289 286 281 286 286 286 288 285 288 292 293 292 292 292 289 287 285 283 284 285 287 288 288 287 288 290 289 291 291 290 289 289 288 287 287 286 286 286 286 285 284 285 285 285 284 284 283 282 282 282 281 281 281 280 280 280 280 280 280 280 280 280 279 279 278 277 276 276 275 273 273 272 271 271 271 270 270 269 269 268 268
287 283 282 282 281 279 285 286 283 288 286 290 291 289 288 289 290 292 291 291 287 287 283 282 283 286 287 287 288 287 286 288 288 288 289 288 288 288 287 286 287 286 285 285 284 285 284 284 285 284 284 284 283 282 282 281 281 280 280 281 280 280 280 280 280 280 280 280 279 279 278 277 277 277 275 274 273 272 272 271 271 270 269 268 267 267 267
284 282 280 281 279 282 284 282 282 284 284 288 289 287 285 287 284 288 291 288 286 286 284 283 287 287 286 287 288 287 287 287 287 287 287 288 287 287 288 288 287 286 285 285 284 284 284 283 283 284 284 284 283 282 281 281 281 281 281 281 280 280 281 281 281 280 280 280 280 279 279 278 277 276 275 274 274 272 271 271 270 268 268 267 266 265 265
285 283 281 280 285 285 284 282 282 283 280 287 289 279 280 287 285 287 289 288 286 285 286 286 288 288 287 288 288 289 288 288 287 287 287 286 286 286 286 286 286 285 283 283 282 283 283 283 282 283 284 284 283 282 281 281 281 281 281 281 281 281 281 280 280 280 280 280 280 279 279 278 277 276 275 273 272 271 270 270 269 268 267 267 266 265 264
284 284 283 285 285 286 283 281 281 282 282 288 283 279 285 282 281 285 288 287 287 286 285 287 287 288 287 288 285 285 286 286 285 285 285 286 286 285 285 284 285 283 283 284 284 283 283 282 282 282 283 283 282 282 281 281 281 282 282 281 280 280 280 279 279 280 280 280 280 279 279 278 277 275 274 274 271 270 269 268 267 266 266 265 265 264 264
282 284 282 283 285 286 283 281 282 283 288 281 281 285 281 281 282 284 287 287 287 287 286 287 288 285 282 283 283 284 285 285 285 285 284 283 283 283 283 284 283 283 282 282 282 281 281 281 282 282 282 282 281 280 280 280 282 282 279 280 280 279 279 280 279 279 279 279 279 279 277 276 274 273 272 272 271 269 268 267 267 266 264 264 264 263 263
283 282 281 280 277 284 281 284 284 284 283 284 283 281 281 282 282 284 285 287 286 287 286 286 283 281 281 282 283 283 284 284 284 283 283 282 282 282 282 282 282 283 282 282 282 281 281 280 281 281 281 280 279 278 279 281 280 279 280 279 279 279 279 279 278 278 278 277 277 277 275 275 274 273 270 269 268 268 267 266 266 265 264 263 263 263 262
280 281 278 280 285 283 284 286 284 284 287 286 284 285 283 282 283 283 284 285 286 286 287 285 281 281 281 281 281 282 282 282 282 282 282 281 281 281 281 282 282 282 282 282 281 280 280 279 279 280 280 279 278 278 280 281 277 276 276 277 278 278 278 277 277 276 275 274 274 274 274 273 272 271 269 268 267 267 266 266 265 264 263 263 262 262 263
284 282 283 283 282 284 283 283 283 285 285 285 286 286 285 283 283 283 283 283 284 285 285 283 281 280 280 280 281 281 281 282 281 281 281 281 281 281 281 281 282 282 282 281 280 279 278 277 277 278 277 279 278 278 280 278 278 278 277 276 277 277 276 275 274 271 269 271 270 269 270 272 271 270 267 266 266 264 265 265 265 265 264 263 263 263 263
282 283 283 283 283 283 283 284 284 285 285 284 285 284 283 283 283 283 282 282 283 283 283 282 280 279 279 280 279 279 280 281 280 281 280 280 280 279 279 280 280 279 279 279 278 277 276 275 276 276 276 277 278 280 278 275 275 275 275 275 275 276 274 273 271 268 269 266 265 266 267 269 271 270 269 267 267 265 265 265 265 265 265 264 264 264 264
283 279 281 280 282 282 282 284 284 283 283 284 284 284 284 283 282 283 283 281 282 281 281 282 280 278 278 279 279 279 279 280 280 280 280 280 280 280 280 280 280 278 277 278 278 276 276 274 276 275 275 276 279 277 275 276 275 273 271 274 274 272 272 271 268 268 269 268 265 264 264 265 266 267 267 267 266 265 265 265 265 265 265 265 265 265 264
281 278 278 279 279 281 282 282 283 283 283 284 283 281 280 280 281 281 281 281 281 281 281 280 280 280 279 280 279 279 279 279 280 280 280 279 279 278 278 278 279 277 278 278 276 276 278 277 276 275 275 276 276 275 272 271 270 271 271 272 272 272 270 268 268 267 268 267 266 265 264 265 266 266 266 266 266 267 266 266 265 265 265 265 266 266 265
278 278 279 278 281 282 282 281 282 283 283 282 282 281 280 280 280 280 279 280 280 281 280 280 281 280 280 280 280 280 279 279 279 279 279 279 279 278 278 277 278 279 277 277 277 277 278 276 275 274 274 273 272 273 270 266 268 270 270 270 269 269 267 266 266 265 265 264 265 265 263 263 264 265 266 266 267 267 265 265 267 267 266 267 267 266 266
277 278 278 279 279 278 282 282 283 283 283 282 281 280 280 279 279 279 279 278 278 279 281 280 281 281 280 280 280 280 279 279 278 278 278 278 278 277 276 276 275 275 274 275 275 276 275 275 274 273 272 271 270 271 268 266 268 269 268 267 266 266 265 265 263 263 263 263 262 263 262 262 261 262 267 271 268 265 264 270 273 273 272 268 267 266 266
278 282 282 283 283 283 284 285 284 284 283 282 281 280 280 279 279 279 279 277 278 279 279 280 281 280 280 280 280 279 278 279 279 279 278 278 277 277 276 275 273 274 274 274 274 274 274 274 273 272 270 269 268 268 269 268 268 269 268 269 267 267 267 266 267 265 264 264 264 263 263 262 262 262 262 264 272 273 272 271 272 274 274 274 274 273 268
280 282 282 283 281 281 281 285 285 284 283 282 281 281 280 279 279 279 279 278 278 277 278 278 279 279 279 279 279 279 278 278 278 278 277 277 277 276 275 276 274 273 273 273 273 273 273 272 271 269 268 267 267 267 266 266 266 267 267 269 269 268 268 265 267 265 264 264 263 263 262 262 262 262 262 263 263 270 273 273 273 273 273 274 274 274 274
281 281 283 283 281 281 280 284 284 284 283 282 282 281 280 279 279 278 279 279 278 279 278 278 277 279 278 278 278 278 278 278 277 277 277 277 277 276 275 274 274 273 272 272 271 271 271 269 269 267 266 264 264 263 263 264 264 265 264 265 266 266 266 266 265 265 264 264 263 263 262 262 261 262 262 262 263 263 267 273 274 273 273 274 274 275 275
281 281 282 279 279 278 278 279 281 282 281 281 281 280 281 281 280 279 278 278 279 278 278 277 277 277 277 277 277 276 276 277 278 277 275 274 275 274 274 273 273 273 272 271 270 270 268 267 267 265 263 260 260 260 260 262 262 264 263 264 264 265 265 263 264 262 263 261 263 263 262 262 261 261 261 262 262 263 263 264 269 272 274 275 274 275 275
280 281 280 279 278 278 278 280 280 279 279 279 280 279 279 279 280 279 277 277 277 277 278 278 277 277 276 276 276 276 276 276 275 274 274 273 273 273 272 271 272 271 269 268 266 265 266 265 264 261 259 257 258 258 260 260 261 261 261 262 262 263 263 263 261 261 261 261 261 260 261 260 261 261 261 261 262 262 261 263 264 265 265 266 270 273 272
280 281 283 280 278 279 277 277 276 277 278 278 277 277 276 276 276 275 275 277 277 275 275 275 275 275 275 275 274 274 275 274 274 273 273 273 270 268 268 267 267 267 266 264 263 262 262 262 261 259 256 257 257 257 257 258 258 259 260 261 260 260 260 260 260 261 260 260 260 260 259 259 259 260 260 260 260 260 261 260 260 260 261 263 264 267 270
279 279 278 278 278 278 278 277 277 277 276 276 276 275 275 275 274 274 273 274 274 274 275 274 274 273 274 273 272 272 272 272 272 272 271 268 265 264 264 264 263 263 262 261 260 259 260 260 259 257 256 256 256 256 256 257 258 260 258 259 260 260 260 259 259 260 259 258 258 260 264 260 259 258 259 259 259 259 259 259 259 260 261 261 260 260 265
278 277 276 277 277 277 277 276 277 276 275 275 275 274 274 275 275 274 274 274 274 273 274 273 272 272 272 272 271 271 271 270 271 269 266 263 262 261 263 263 263 262 262 260 258 258 258 258 257 255 255 255 256 256 256 257 258 258 257 258 259 260 259 257 259 259 258 259 259 262 260 259 259 257 258 258 258 258 259 259 260 259 260 260 262 261 260
276 275 275 275 275 275 276 276 275 274 275 273 273 273 273 274 274 275 275 275 274 274 273 273 271 270 270 271 270 269 268 267 266 264 262 261 260 260 261 262 266 266 262 258 257 256 257 256 255 255 254 254 254 255 257 257 257 258 258 259 258 263 264 264 263 258 257 257 257 257 257 257 257 258 258 258 258 258 259 259 259 260 260 260 260 260 260
275 273 273 274 274 273 274 274 275 275 275 273 273 273 273 273 274 274 273 274 274 273 273 272 271 270 269 269 268 268 265 263 261 260 259 258 258 257 258 257 257 257 256 256 256 257 256 255 254 253 253 254 255 254 256 257 257 258 259 259 258 258 261 264 261 262 259 258 257 257 258 257 257 257 257 257 258 258 258 258 259 259 259 259 259 259 261
273 272 273 273 272 271 271 272 275 274 273 273 274 274 274 273 273 273 273 274 273 270 271 270 270 270 268 268 267 265 262 261 260 258 257 256 255 256 256 256 256 256 256 256 256 255 255 254 254 254 254 254 254 255 256 257 259 258 258 258 259 258 261 262 262 260 258 257 256 256 256 256 256 255 255 256 257 258 258 258 258 258 258 258 258 259 260
276 276 277 277 277 277 276 275 275 274 273 273 273 273 273 273 272 272 272 270 269 269 269 267 265 263 265 265 263 261 262 262 261 259 257 255 254 254 255 256 256 256 255 255 255 255 255 255 254 255 255 255 254 255 255 256 257 256 256 256 256 256 256 257 259 257 256 256 256 258 255 256 255 255 256 256 255 256 256 256 256 256 255 255 255 255 259
275 274 273 272 272 273 275 276 275 274 274 272 272 272 271 270 269 269 269 268 266 263 262 261 261 261 262 262 261 260 263 263 261 258 256 255 254 254 255 255 254 254 254 254 254 254 255 254 255 253 255 254 255 255 256 256 255 255 254 255 256 255 255 256 255 254 254 254 254 254 254 254 255 257 256 255 254 254 254 254 253 253 253 253 252 253 255
268 271 268 266 264 263 264 263 264 269 270 270 268 266 263 260 261 261 261 261 261 261 260 260 261 261 260 260 261 259 259 257 257 256 255 255 255 256 255 254 254 253 253 253 254 253 254 254 258 258 257 256 255 254 255 254 252 253 253 253 254 254 254 254 253 253 253 252 252 253 252 254 254 253 253 252 252 252 251 251 251 251 251 252 251 252 252
261 265 264 262 260 258 257 257 257 259 260 260 260 262 260 258 258 257 257 257 258 258 258 258 260 259 256 256 256 256 256 256 256 255 255 255 256 255 255 254 254 254 254 252 251 252 252 252 256 258 257 255 254 253 255 256 252 251 251 251 251 252 252 251 251 251 251 252 252 251 253 252 250 251 253 251 251 250 251 250 251 251 251 251 252 252 252
257 257 258 257 256 255 254 254 255 256 256 255 254 254 254 254 255 254 254 255 254 256 256 256 256 255 255 254 253 252 252 253 254 254 254 254 254 255 255 255 254 254 253 250 251 252 251 255 256 255 254 255 254 254 255 256 256 251 250 250 251 251 252 251 251 251 251 250 252 250 249 250 249 248 248 249 249 250 250 250 251 250 250 250 250 251 252
259 258 257 256 256 255 255 255 255 254 254 253 253 253 254 254 254 253 254 254 254 255 255 255 256 255 255 253 251 251 250 250 252 253 253 253 252 252 249 248 248 249 250 252 253 250 253 254 254 254 254 253 254 254 254 255 255 250 250 250 249 250 251 251 250 251 251 251 249 249 248 249 249 249 248 248 248 250 251 251 250 251 250 250 249 250 251
258 257 256 256 255 255 255 254 253 253 253 252 252 252 252 254 254 254 254 254 255 255 254 256 256 255 252 252 251 250 247 248 249 250 250 251 251 251 251 250 248 249 252 254 252 250 253 255 253 252 252 252 251 250 253 254 255 252 249 249 250 250 250 250 249 250 250 248 250 253 250 249 249 249 250 249 249 249 249 249 249 250 250 250 249 250 251
258 258 257 255 254 254 253 253 251 251 251 251 251 251 252 253 253 254 253 253 254 254 254 254 254 253 252 251 249 247 246 247 247 247 249 252 253 253 252 249 249 248 248 249 249 250 253 253 251 249 249 253 253 254 250 254 252 248 249 249 249 249 249 249 250 250 249 249 250 248 247 248 249 249 249 249 249 248 249 249 249 250 249 249 250 250 250
255 256 256 254 253 253 252 252 252 251 251 250 250 251 252 253 253 252 252 253 252 252 252 252 252 250 249 248 248 248 247 246 247 248 248 250 250 252 252 249 248 248 254 253 253 252 250 249 251 254 253 253 253 254 255 253 248 249 249 249 250 250 250 251 250 249 250 249 249 247 248 248 247 248 249 249 248 248 249 248 249 249 249 249 250 250 250
253 253 253 252 251 250 250 251 250 250 250 250 250 250 250 251 251 251 251 252 251 251 251 250 251 251 250 250 250 249 248 247 249 248 249 247 246 247 250 251 249 249 254 252 251 250 250 249 248 249 254 253 253 254 254 253 252 251 249 250 251 251 250 249 249 249 249 248 247 247 247 247 247 247 248 248 249 248 249 248 249 250 249 249 249 250 250
251 251 251 250 250 251 251 251 251 251 250 250 250 250 250 250 250 251 251 251 251 251 251 251 251 251 250 250 251 251 250 249 249 250 251 249 251 250 249 249 248 250 254 252 251 250 250 249 250 253 254 254 254 254 254 252 252 252 250 248 249 249 249 249 249 249 248 250 249 248 249 250 249 248 247 249 249 248 249 249 249 249 249 249 249 250 251
251 251 250 250 251 252 251 250 250 250 250 250 250 250 250 249 250 250 250 251 251 251 252 251 251 252 252 251 251 249 250 249 248 250 250 250 250 250 249 251 251 250 252 254 251 251 250 249 251 254 254 255 255 255 252 252 252 252 252 251 248 249 249 249 249 249 250 249 249 250 250 249 248 249 248 249 251 250 249 250 250 250 251 250 251 251 251
250 250 250 251 250 250 250 249 250 250 251 252 251 250 250 249 249 249 249 250 250 251 251 251 251 251 251 251 251 252 251 250 249 248 248 248 249 249 250 252 250 252 253 254 252 251 250 254 255 255 255 255 255 253 252 253 253 252 252 252 249 250 249 249 250 250 249 250 250 250 249 250 249 250 250 250 250 250 251 252 251 250 250 251 251 251 252
250 250 250 249 250 250 250 252 252 252 252 251 250 248 249 248 248 249 247 248 248 248 248 249 249 249 249 249 250 249 249 250 249 249 248 248 250 250 252 253 253 253 253 250 251 250 250 251 254 255 255 255 255 251 250 251 252 252 252 250 249 249 250 250 250 249 249 250 251 252 252 252 250 249 250 251 250 251 250 251 251 251 251 251 251 252 252
249 249 249 249 249 249 249 250 249 248 248 248 247 247 246 246 248 248 247 249 249 248 248 247 246 245 245 245 246 246 247 249 250 249 248 246 247 247 249 248 250 253 253 253 253 254 255 255 255 255 256 255 254 251 251 252 253 252 249 249 249 249 249 250 250 250 250 251 251 250 249 249 250 249 250 250 250 250 250 250 251 250 250 250 250 251 250
248 248 248 248 248 248 250 250 250 250 248 247 247 248 247 248 249 249 248 248 247 249 248 246 245 246 246 247 247 248 247 248 248 249 250 250 251 252 252 253 254 254 253 251 249 249 253 255 255 255 255 255 250 249 249 249 250 251 251 250 250 250 250 250 250 250 250 249 250 250 250 250 249 249 250 250 250 250 251 251 251 250 250 250 251 251 250
249 249 249 249 248 248 249 251 250 249 247 248 248 248 248 249 250 249 250 248 248 250 248 247 247 248 248 248 248 247 246 247 251 252 252 251 251 251 253 251 251 254 254 252 250 250 253 255 255 255 254 252 251 252 252 252 250 250 251 252 252 251 252 253 254 254 252 251 250 251 251 251 250 251 251 250 250 251 251 251 250 252 252 252 251 251 250
249 249 248 248 248 248 247 248 249 249 248 249 248 250 250 250 250 250 248 248 248 249 248 248 249 249 249 249 249 249 248 248 250 252 253 253 253 254 254 254 254 254 254 254 253 252 252 252 250 252 252 252 252 251 251 251 251 251 252 252 251 252 251 252 251 251 250 251 250 250 250 249 249 249 249 250 250 250 250 250 250 250 250 250 250 250 250
249 249 249 249 249 249 249 249 249 250 248 249 248 249 250 249 249 249 249 253 251 251 250 250 249 249 249 249 250 249 250 251 251 254 255 254 254 254 254 255 254 253 252 252 252 250 251 251 253 254 253 251 251 250 252 253 252 251 252 251 252 252 251 251 251 250 250 250 250 250 250 250 249 250 250 249 250 250 250 250 250 249 250 249 249 250 250
Wind_Speed
21 20 18 12 7 8 8 14 15 17 18 16 21 25 22 9 13 22 16 10 18 21 11 11 12 12 12 13 16 12 9 8 7 9 11 12 12 10 11 12 13 13 13 14 14 13 12 10 12 12 11 10 9 8 8 9 9 10 9 10 10 10 9 10 10 9 8 7 7 8 7 8 8 8 8 8 8 7 7 7 6 7 7 6 7 5 4
14 19 17 9 10 10 9 8 12 16 19 25 27 23 18 19 20 23 22 12 18 18 6 9 12 12 13 7 4 7 12 14 13 13 12 12 11 12 13 13 14 14 14 11 12 12 11 14 13 12 12 12 12 12 12 11 10 9 10 10 11 10 10 10 8 9 9 8 9 9 8 9 9 9 9 8 8 8 7 7 7 7 7 5 6 6 6
14 18 13 8 11 10 13 15 12 15 20 22 21 16 17 18 19 25 24 18 21 18 3 4 8 10 5 6 10 13 10 8 11 12 11 11 11 10 10 10 11 10 10 10 10 12 14 15 15 14 12 11 10 11 10 11 11 10 10 11 10 10 11 9 9 9 9 9 9 10 9 9 7 8 9 8 7 7 7 8 8 7 7 7 5 5 6
12 17 14 14 10 11 13 18 21 24 24 17 8 14 17 13 21 22 15 16 23 15 9 7 6 8 11 11 9 9 9 12 11 11 10 9 9 9 10 11 9 9 10 12 14 15 16 14 14 12 12 12 12 13 12 12 11 9 10 10 11 10 10 9 9 10 10 10 10 10 9 9 9 8 8 8 7 7 7 7 7 6 6 6 6 5 5
14 20 5 8 10 8 13 19 31 33 21 11 13 14 16 20 19 14 16 22 21 8 4 5 5 9 9 7 8 8 7 8 10 11 11 11 9 11 11 11 11 11 12 14 15 13 10 12 13 14 13 11 13 12 12 11 9 10 11 10 10 10 10 10 10 10 10 11 10 9 9 9 9 8 9 8 8 8 8 6 6 6 7 7 6 5 6
9 15 6 4 4 13 17 20 14 15 18 20 20 21 22 19 16 17 18 10 2 5 8 12 10 10 13 15 11 8 13 11 9 7 8 10 11 10 9 9 10 10 8 8 8 10 10 10 10 9 10 12 10 9 10 9 11 10 11 10 10 11 10 11 10 11 11 10 10 10 9 9 9 9 9 10 8 6 6 6 6 5 5 6 6 6 6
8 2 10 6 15 19 10 5 2 2 12 16 20 23 20 16 15 15 17 14 9 8 11 13 13 12 7 4 9 8 7 12 12 13 11 10 11 10 10 10 9 9 9 8 7 7 8 9 9 10 10 9 8 9 10 11 11 11 11 11 11 11 11 10 10 10 11 10 10 9 9 9 9 9 10 8 7 7 8 8 8 9 8 7 6 6 5
2 3 7 8 14 4 3 4 1 3 2 3 6 13 19 21 18 18 21 23 10 6 6 1 2 7 4 2 1 2 4 5 10 9 9 10 9 11 11 12 10 10 10 11 10 9 6 7 8 9 10 8 10 10 9 11 10 10 11 11 12 10 9 9 11 11 10 10 10 9 9 9 10 10 9 10 10 7 7 5 4 4 4 4 6 7 6
10 7 12 18 6 14 11 7 3 6 7 7 11 12 17 17 16 16 17 16 7 6 3 3 4 5 4 1 3 1 4 5 4 8 8 9 9 8 6 8 9 7 7 7 7 6 6 8 9 9 8 9 9 9 10 10 10 10 10 11 11 10 10 10 10 10 10 10 10 10 10 11 11 11 10 9 7 6 7 7 7 7 8 7 6 6 6
13 13 12 6 5 14 20 3 2 5 1 4 7 9 15 6 9 14 14 14 9 9 5 5 6 5 4 6 8 4 3 2 4 3 4 4 5 7 7 5 6 6 5 5 5 8 7 7 7 7 8 9 9 9 9 9 10 9 10 12 10 10 10 10 10 10 11 11 11 11 10 12 12 11 9 7 8 8 10 9 9 9 7 6 5 6 7
7 10 11 10 11 11 1 2 3 1 0 3 5 4 14 2 1 6 13 10 12 14 12 7 7 7 8 10 7 5 5 4 4 6 4 5 6 6 8 10 9 7 7 7 7 6 7 7 6 8 8 9 9 9 8 9 9 10 11 10 10 11 12 12 11 10 9 10 11 11 12 12 11 11 11 11 9 8 8 7 7 6 6 7 6 5 5
9 10 11 12 6 7 2 2 1 2 2 4 8 5 7 1 2 1 7 11 11 8 8 10 8 11 11 7 6 5 9 9 5 7 9 8 8 6 6 5 7 8 8 8 6 8 8 8 7 8 8 9 9 9 8 8 9 11 11 12 13 11 8 8 8 9 9 10 11 11 13 11 9 10 7 7 8 9 7 7 7 6 6 7 7 6 5
15 13 11 5 5 2 2 4 3 2 2 4 9 12 2 2 3 3 6 8 10 11 10 9 8 5 2 3 2 5 8 8 5 4 4 5 7 9 8 8 8 8 6 8 10 9 8 8 7 7 8 8 8 7 8 8 10 12 11 8 7 7 7 7 7 9 8 10 12 11 10 10 9 7 8 9 8 8 8 7 6 6 7 6 6 6 5
12 12 13 11 4 2 4 2 3 2 5 7 10 1 2 1 1 3 5 8 8 10 13 11 5 5 4 5 5 6 7 8 6 7 8 8 6 5 5 7 8 7 6 5 5 5 5 8 7 7 8 8 7 7 8 10 13 9 5 6 6 6 7 8 8 8 9 8 9 10 7 8 8 8 6 7 8 8 7 7 8 8 6 5 6 6 4
2 1 9 4 9 1 5 7 3 2 4 2 3 3 1 1 2 4 3 6 5 7 7 3 7 7 4 5 6 5 6 8 9 9 9 10 10 9 7 5 4 8 7 7 7 7 6 7 6 6 8 8 7 7 9 13 8 5 6 5 6 7 7 7 8 8 8 8 8 7 8 9 9 9 7 7 7 8 8 8 8 8 7 6 6 6 5
7 9 10 6 2 4 1 2 7 3 2 3 6 4 1 2 1 1 2 1 5 6 6 7 5 6 7 4 5 5 5 5 5 5 5 5 6 5 4 6 7 6 7 6 7 5 6 6 6 7 9 8 7 8 12 8 4 5 5 5 6 6 7 6 6 7 7 7 7 6 8 8 7 8 8 7 7 8 8 8 8 8 6 7 6 7 8
4 2 1 1 2 2 2 3 2 1 1 1 1 3 3 3 2 1 2 3 2 3 4 5 6 4 4 6 6 8 7 7 8 8 8 8 8 8 8 8 6 6 9 8 7 6 5 6 6 7 6 9 7 8 8 4 5 6 6 6 7 7 7 6 6 5 5 6 6 6 6 8 9 8 7 8 8 6 8 8 8 9 8 8 9 9 7
3 3 1 1 3 2 3 3 2 1 1 1 3 3 3 2 2 4 3 2 4 4 5 7 2 4 5 7 5 5 6 7 5 5 6 5 5 5 5 5 5 5 5 6 6 6 4 5 5 5 5 6 8 8 2 4 4 5 5 7 7 8 7 6 6 6 6 5 5 5 6 6 8 8 10 10 10 8 8 8 8 9 9 8 9 8 9
2 2 3 3 2 3 1 0 3 3 0 0 0 1 2 2 3 4 1 3 5 5 5 6 6 5 6 6 5 6 6 7 8 8 8 7 8 9 8 7 7 5 6 6 6 6 6 5 5 5 6 6 8 2 2 3 4 5 5 6 6 5 6 6 5 6 7 7 6 4 5 4 5 6 7 7 7 8 9 9 9 9 8 9 9 9 10
3 1 3 1 1 1 1 2 3 4 3 3 1 1 1 3 3 3 3 5 5 5 4 5 7 6 6 8 6 6 6 6 6 6 7 7 5 3 4 6 6 5 6 6 6 6 6 6 5 5 6 8 5 1 1 3 4 5 5 5 5 5 4 4 5 5 6 7 7 6 6 6 7 6 6 7 9 11 13 13 12 11 10 11 12 11 11
2 3 1 1 4 1 3 3 4 4 5 4 3 0 1 2 3 4 5 4 3 4 4 4 7 7 5 6 7 7 5 5 5 6 6 6 6 6 6 5 7 9 8 7 7 7 7 4 5 5 6 3 2 3 2 3 4 4 4 3 2 1 2 3 4 3 4 4 5 5 5 4 4 4 6 7 9 7 4 3 7 9 10 10 10 8 7
3 6 6 8 7 4 7 9 10 8 7 5 4 1 1 2 3 3 3 3 3 2 1 4 6 7 6 5 6 6 6 6 5 5 5 5 5 5 4 5 4 3 5 6 6 6 4 3 4 4 3 3 3 4 4 4 4 4 3 3 3 3 3 4 3 3 3 3 3 3 4 4 4 5 5 7 7 5 5 5 12 13 9 8 6 6 7
4 4 10 9 2 3 9 13 12 10 7 5 5 4 5 4 4 5 6 4 1 1 1 0 6 6 7 7 5 5 4 6 5 6 6 6 5 5 5 5 4 5 4 2 3 2 0 0 1 2 3 2 3 3 4 4 5 5 5 6 5 6 6 6 6 6 5 6 5 5 5 5 5 6 5 5 9 12 10 8 9 10 12 11 10 12 9
1 4 10 9 5 6 5 9 11 11 7 7 7 6 4 5 5 5 5 5 6 3 1 1 0 3 4 4 6 6 3 3 4 4 3 3 3 3 4 5 5 4 3 2 1 0 1 1 2 3 4 4 3 2 3 4 4 5 5 6 6 5 5 4 5 4 4 4 4 5 5 4 5 5 5 6 6 8 11 11 11 12 12 12 11 10 12
4 4 7 9 6 5 4 8 10 9 8 9 7 6 5 5 4 5 5 4 4 7 5 4 1 0 3 4 4 5 4 2 2 3 3 3 4 4 3 4 4 4 3 2 2 2 2 3 3 4 5 4 4 3 2 3 3 4 4 4 4 2 1 4 5 5 5 5 5 5 5 5 4 5 5 5 6 6 5 12 16 15 14 14 15 15 14
7 6 7 4 1 3 2 3 1 6 6 5 3 2 3 5 5 4 4 4 3 3 3 3 3 1 3 3 3 4 4 3 3 4 4 4 3 3 2 2 2 3 4 4 4 4 4 4 4 5 5 4 4 3 2 2 2 2 2 1 1 1 0 1 4 3 4 4 5 4 5 5 5 5 5 5 6 4 4 3 6 9 12 14 14 14 14
5 9 9 5 3 1 2 8 7 5 3 3 4 3 3 4 5 4 3 4 3 3 3 3 4 4 3 2 4 2 4 2 3 3 3 3 2 2 2 3 4 4 5 5 5 4 5 4 5 5 4 3 4 4 4 3 3 2 2 2 1 3 5 3 2 3 4 3 4 4 4 4 5 4 5 3 3 4 3 4 4 5 3 3 6 9 8
8 8 10 10 8 9 5 2 3 5 5 5 6 5 4 5 5 4 3 1 1 1 2 2 4 4 4 2 4 2 3 3 2 1 2 2 3 4 4 5 5 5 5 6 4 3 4 5 5 6 4 4 4 4 4 3 4 4 3 2 3 3 3 3 4 4 4 3 3 4 3 3 3 3 2 2 2 1 0 1 1 2 2 0 0 3 7
6 4 2 1 4 4 6 7 6 6 5 4 5 5 6 6 4 4 4 3 2 1 1 0 2 3 3 2 3 3 3 2 2 1 3 4 5 4 4 4 5 5 6 6 4 3 4 5 5 6 4 3 4 3 3 4 4 4 4 3 4 4 4 3 4 5 4 4 4 4 4 4 4 3 3 2 2 2 2 2 3 3 3 2 2 4 5
3 3 3 4 4 5 7 4 5 5 7 6 7 4 4 5 5 4 4 4 3 3 2 2 2 1 2 2 2 4 4 3 2 3 5 4 4 3 3 3 5 5 5 6 4 3 5 5 6 6 3 3 3 3 3 4 5 5 4 5 5 5 4 4 4 4 4 4 3 5 5 3 3 3 3 2 2 1 2 1 2 2 3 3 4 3 3
3 4 5 4 6 4 5 4 4 4 4 3 4 4 3 3 1 1 1 3 4 4 4 4 4 3 3 3 1 3 4 5 6 5 5 4 4 4 4 2 1 2 3 3 3 4 6 6 6 4 2 2 2 3 3 4 4 4 5 4 4 6 8 7 5 5 5 4 4 4 3 3 3 4 3 2 1 1 2 2 2 3 3 3 3 3 3
5 5 6 3 3 3 2 2 4 3 4 4 4 3 4 3 2 3 3 1 0 3 4 4 4 4 5 4 5 5 6 6 6 6 5 5 5 5 5 5 7 7 6 4 4 4 5 5 6 3 2 2 3 3 3 3 3 4 5 4 4 3 4 7 5 6 5 5 3 3 4 3 2 3 2 2 2 2 2 2 3 3 3 4 4 3 2
6 2 0 1 0 1 1 3 5 5 4 4 5 3 2 2 2 2 2 1 2 3 3 3 4 5 6 7 7 7 7 7 6 6 5 5 4 4 4 5 6 7 7 5 5 5 5 6 4 2 2 2 3 3 4 4 4 4 4 4 4 3 3 5 6 5 4 4 3 3 2 3 2 2 1 2 1 1 1 2 2 2 3 3 3 3 4
10 9 10 9 10 9 8 8 6 5 4 3 1 2 2 2 2 2 2 3 3 3 2 3 3 4 5 6 6 7 8 8 6 4 4 5 4 4 4 6 6 7 7 6 6 6 5 4 3 3 3 4 3 4 4 4 4 4 4 5 5 3 3 3 5 4 4 4 4 3 3 3 1 1 1 2 1 1 2 2 3 3 3 4 4 3 7
2 1 3 2 1 1 1 4 7 7 5 5 3 2 2 3 3 3 3 4 2 1 1 3 4 4 5 5 5 5 4 4 5 7 6 5 5 5 6 7 7 8 8 7 5 5 3 3 4 4 4 4 4 4 4 4 4 5 4 4 4 3 3 4 3 3 3 1 3 3 2 2 1 2 2 1 0 0 0 2 1 3 4 4 5 4 5
3 5 5 6 5 5 7 7 4 2 3 4 3 3 4 3 4 4 4 3 1 2 2 3 4 6 6 5 5 4 4 4 5 7 7 6 6 5 6 7 7 8 7 7 4 3 3 3 4 5 3 4 4 4 4 4 4 4 3 4 4 4 5 4 4 3 3 2 2 2 1 2 2 2 2 1 0 1 1 2 2 3 3 5 4 5 4
10 6 5 5 5 8 9 7 6 5 7 6 4 4 6 6 6 3 2 3 3 3 2 2 4 6 6 5 6 6 6 5 5 6 6 5 5 5 6 6 5 5 5 5 1 2 3 3 4 5 5 4 3 3 3 5 3 3 3 5 4 4 3 3 2 2 1 1 1 1 3 3 0 0 1 1 1 2 2 2 5 4 4 4 4 5 7
7 9 8 7 6 9 7 5 4 5 7 9 8 6 5 3 4 4 4 4 4 4 4 6 6 7 7 7 8 8 6 5 6 6 6 6 5 7 5 6 3 3 5 3 1 3 2 3 5 5 4 3 2 2 3 5 4 3 3 3 3 3 4 2 3 4 2 1 3 1 1 0 0 1 1 1 2 2 4 4 4 3 4 4 4 4 6
9 7 7 6 5 6 5 7 7 8 9 9 7 6 4 3 3 4 6 5 4 3 6 6 6 7 6 8 8 6 6 4 4 8 8 6 6 9 6 4 3 3 2 2 4 3 2 2 4 4 3 2 4 3 3 4 5 5 4 3 2 2 1 2 1 3 3 3 1 1 1 1 0 1 1 2 2 2 4 5 3 6 5 6 5 6 6
6 7 7 6 8 6 6 7 9 9 7 6 6 6 3 4 3 5 5 6 5 4 4 4 6 7 6 7 7 7 4 5 5 8 9 8 9 9 6 5 3 3 3 4 3 2 2 3 3 4 3 2 2 2 3 3 2 3 2 2 1 2 2 2 1 1 0 1 1 1 1 1 1 2 3 3 2 3 4 4 4 6 5 5 5 5 6
7 6 6 7 6 6 6 7 7 7 7 8 7 5 5 4 3 6 7 6 5 6 6 4 7 7 6 7 8 6 4 4 7 7 5 5 6 5 6 2 1 2 1 2 2 2 2 2 2 2 2 3 4 3 2 2 1 2 2 2 1 1 1 1 1 0 1 1 2 1 1 1 1 2 3 2 3 4 5 5 5 5 5 6 5 5 5
6 6 7 7 6 6 6 6 5 8 8 7 6 6 7 6 6 6 5 5 6 7 9 9 9 9 8 8 7 6 6 5 6 7 7 6 4 5 6 1 2 1 2 3 2 2 1 2 2 3 3 3 3 3 3 2 1 1 1 1 1 0 1 0 0 1 1 1 1 1 2 1 2 2 2 3 4 5 5 5 6 6 6 6 5 5 6
7 7 6 6 6 5 5 6 7 7 6 7 6 5 5 5 7 6 6 7 7 8 9 9 9 9 8 7 8 8 6 4 6 5 6 4 2 1 3 4 2 1 2 2 1 2 3 2 3 2 3 3 2 1 1 0 1 2 0 0 1 1 1 1 1 1 1 1 2 3 3 4 4 4 4 4 6 6 6 5 6 6 5 6 6 5 5
5 5 5 5 5 4 4 5 5 6 9 7 6 6 7 6 6 6 6 7 7 7 8 8 7 7 6 5 6 7 5 4 4 3 6 4 6 5 5 4 3 2 3 3 1 2 2 2 1 2 2 2 2 0 0 1 1 1 2 2 1 2 1 2 2 2 2 3 3 4 5 5 5 5 4 6 6 6 5 6 6 6 6 6 6 5 5
6 5 5 5 5 6 6 6 6 7 6 4 6 8 7 7 7 5 6 7 8 7 6 6 5 5 4 5 6 5 5 4 2 1 4 3 5 1 1 3 2 2 3 2 1 1 1 2 1 1 0 1 1 1 1 2 2 2 2 2 2 2 2 2 3 3 4 4 4 5 6 4 4 5 5 6 6 6 6 6 6 5 6 5 5 5 6
6 6 6 7 8 6 5 5 5 4 4 6 9 9 8 7 6 7 6 7 7 6 5 5 6 5 5 6 5 5 5 5 4 4 3 1 3 3 3 3 3 2 1 2 0 0 0 2 1 0 1 2 2 2 3 3 4 3 3 4 3 5 3 4 3 5 4 5 6 5 5 6 5 6 6 6 6 6 6 7 6 5 5 5 5 6 6
5 6 7 7 6 4 3 2 2 4 5 7 9 6 5 4 5 6 5 6 6 6 5 5 5 4 3 3 4 5 4 5 4 3 4 3 4 4 4 3 2 1 1 1 1 0 0 0 1 2 2 3 3 2 3 3 3 4 3 3 3 3 4 4 4 5 4 5 6 6 6 6 6 6 6 5 6 5 5 5 6 6 6 7 6 7 7
7 7 6 5 6 5 6 7 8 8 8 7 5 4 3 4 5 5 5 6 6 5 5 4 4 3 3 3 3 3 2 4 5 2 2 3 3 3 1 1 1 1 1 2 3 3 4 3 3 4 3 2 3 2 3 4 4 4 4 4 4 4 4 6 5 5 5 5 4 5 6 5 6 5 5 6 6 5 5 5 6 6 6 6 6 6 5
6 6 5 5 5 7 5 5 6 7 5 4 4 4 3 5 5 5 4 5 6 5 5 4 5 4 2 2 2 3 3 2 2 3 1 2 1 1 0 1 2 2 2 1 1 1 3 4 3 3 4 4 2 3 3 4 4 4 4 4 5 4 4 5 5 5 5 5 5 4 5 5 5 5 6 6 6 5 6 6 6 6 6 5 6 7 6
4 5 6 6 6 6 5 6 6 6 3 4 4 1 1 1 5 4 4 4 4 5 4 4 4 3 3 3 3 2 2 3 3 2 3 2 0 0 0 1 1 3 3 2 1 3 4 5 4 4 3 2 3 3 4 4 3 4 4 6 4 5 5 6 5 6 5 6 5 5 6 6 6 6 7 4 5 5 5 5 6 7 8 7 7 6 5
5 6 5 6 5 5 6 7 6 5 4 5 3 2 3 6 5 4 3 3 2 4 3 3 3 3 3 2 2 1 1 0 0 0 0 1 1 2 2 2 2 3 3 2 1 2 1 1 1 2 2 2 3 3 3 4 4 4 4 4 4 4 5 6 6 5 4 6 6 6 6 5 5 5 4 5 4 5 5 6 6 5 5 5 6 6 6
7 6 6 6 7 6 6 6 5 5 4 5 4 4 4 3 4 4 4 4 5 4 2 2 1 1 1 1 1 1 0 1 1 0 1 1 1 0 2 3 2 3 3 3 3 2 2 2 4 4 4 4 4 4 4 5 4 4 4 5 4 5 5 6 6 5 5 5 6 6 6 6 5 6 5 5 4 5 5 5 5 5 5 5 5 5 5
Wind_Direction
232 239 244 225 198 195 193 204 206 206 209 205 210 223 227 186 214 239 247 174 236 253 223 210 205 196 203 196 202 195 161 144 142 152 162 171 175 168 172 181 183 183 181 186 183 180 181 172 178 180 179 181 177 179 177 177 172 174 167 163 169 170 169 170 174 168 166 169 168 168 165 160 158 157 154 151 150 150 154 154 151 151 151 148 143 141 131
243 247 247 246 243 247 238 217 213 214 207 211 214 222 218 216 228 240 252 234 238 249 228 196 204 201 199 198 126 137 166 175 168 162 171 177 175 176 181 185 188 190 190 181 181 176 176 183 182 182 182 183 183 180 181 179 176 174 164 172 172 174 176 177 169 168 171 171 172 172 167 165 164 159 154 152 153 157 160 155 148 148 147 151 151 149 148
247 253 253 253 246 254 261 256 247 230 222 220 217 217 226 224 240 244 246 254 260 250 229 216 200 188 129 116 157 172 180 162 162 166 171 176 179 184 188 187 191 189 182 180 176 182 188 188 188 186 185 182 179 183 182 179 180 176 169 173 176 177 180 175 172 169 169 177 174 176 171 162 158 157 158 156 159 161 158 157 155 153 152 155 161 156 158
256 252 241 244 247 247 254 260 253 246 237 229 194 214 221 204 226 237 244 252 253 248 210 229 175 149 163 178 174 163 166 175 170 166 171 171 177 185 192 194 184 178 182 184 187 192 193 190 184 181 181 181 180 189 182 181 179 168 173 177 178 181 179 176 175 174 176 176 178 176 168 170 163 161 158 160 166 166 162 160 159 151 160 168 162 162 162
242 255 200 221 231 240 249 248 243 238 239 230 228 227 221 215 218 229 229 234 244 249 163 139 180 168 181 176 175 179 170 165 168 168 170 176 183 192 191 187 186 187 189 191 193 193 185 183 185 189 178 175 188 185 181 179 162 173 179 180 179 181 183 181 180 179 177 179 180 175 176 169 163 159 164 169 169 169 176 167 151 164 175 167 172 168 167
234 261 238 131 185 223 226 236 250 239 233 221 221 231 225 221 201 223 229 249 278 154 170 182 188 182 191 193 202 182 160 159 174 179 173 182 188 190 188 185 187 191 185 186 187 186 187 185 182 171 173 182 183 174 171 162 173 179 177 184 184 187 186 186 181 181 181 179 180 178 171 167 165 169 172 182 179 174 157 155 165 171 178 176 175 176 178
239 158 102 200 218 230 239 22 274 211 228 225 222 236 240 234 226 235 248 247 221 197 185 192 189 196 197 178 173 190 186 162 162 171 184 187 185 179 175 178 184 182 179 171 165 166 175 173 169 167 179 176 162 167 171 174 179 179 183 184 190 192 191 186 181 183 181 179 180 175 171 169 170 178 183 177 174 175 171 176 177 182 182 183 188 181 183
6 110 186 234 234 246 329 266 80 254 102 173 191 246 244 235 224 217 229 236 217 196 199 188 164 174 171 108 41 181 187 179 159 161 187 192 174 174 180 177 177 171 173 173 173 182 171 162 169 172 178 166 165 176 169 176 176 181 181 189 197 194 190 185 186 184 177 178 179 175 172 174 178 186 185 183 180 175 171 178 176 160 187 180 187 188 185
228 198 216 237 332 316 282 265 195 145 174 172 176 228 245 230 220 214 224 234 196 181 156 147 106 105 80 169 273 293 186 190 181 184 193 172 174 167 168 166 171 166 156 162 175 158 158 166 166 175 166 163 165 161 170 178 173 178 182 193 197 191 188 189 188 182 179 179 181 180 177 179 188 190 185 186 179 167 172 181 180 188 192 192 187 182 185
204 223 238 242 252 246 253 253 217 178 196 193 186 200 263 239 203 204 209 222 172 165 156 137 133 107 92 238 248 228 246 152 138 112 126 129 133 139 134 120 123 131 134 130 142 150 158 162 165 156 156 157 156 162 170 171 172 181 185 198 191 185 191 191 189 186 187 183 183 184 181 189 193 194 188 183 183 176 180 183 192 196 184 182 186 183 186
184 219 230 225 226 242 159 208 204 212 322 140 130 148 253 258 219 201 196 190 169 169 157 153 132 125 190 225 234 230 181 162 143 117 105 125 127 128 135 139 136 135 140 141 140 132 139 149 159 151 151 149 152 163 168 172 175 183 195 194 185 192 198 194 191 188 186 185 186 186 190 196 191 187 187 188 182 176 186 183 191 169 175 181 188 190 192
217 215 225 232 220 254 224 219 257 243 321 155 106 195 272 312 345 229 179 170 158 146 148 146 155 165 206 213 240 204 178 164 160 149 145 128 119 110 108 104 127 131 127 117 126 143 156 165 152 145 146 150 160 164 174 166 177 195 199 195 199 199 191 185 185 187 186 188 190 189 197 195 188 192 178 161 171 179 185 180 176 176 179 183 188 201 186
219 219 242 271 275 278 171 175 227 253 271 124 161 215 199 2 6 347 105 134 151 150 155 161 168 230 187 183 152 105 119 115 115 94 100 116 127 132 129 131 126 129 142 150 160 166 164 154 149 148 146 149 166 170 166 174 197 206 203 194 188 186 179 181 185 188 187 188 192 197 193 190 182 174 174 178 169 173 178 173 168 175 183 187 189 199 189
223 220 231 235 278 238 145 269 200 238 109 198 205 170 235 163 58 4 109 134 154 155 161 182 175 148 125 99 94 115 133 142 135 129 121 109 88 74 103 128 133 133 133 126 123 127 143 148 147 149 150 159 171 163 173 196 213 205 172 181 177 173 180 188 190 188 191 194 191 190 181 163 168 182 182 169 174 173 168 172 180 188 183 187 193 201 200
279 148 241 225 241 219 109 128 33 302 148 258 130 152 14 155 168 111 100 142 169 161 176 147 120 136 118 122 127 125 125 132 141 143 142 140 141 140 133 128 143 139 137 143 151 150 146 147 149 152 150 160 167 173 185 215 206 166 182 171 174 180 184 188 192 192 191 185 186 178 177 177 174 180 168 165 168 164 168 177 183 188 190 188 192 207 213
206 197 213 216 308 136 255 135 174 158 187 160 165 120 53 29 30 114 99 180 177 184 156 152 126 130 123 100 116 109 108 114 112 119 121 118 123 129 142 148 152 147 137 141 140 143 142 148 152 156 157 162 172 179 213 216 157 170 168 176 169 179 189 193 188 191 190 188 181 175 175 169 170 165 171 171 166 174 174 176 182 191 197 190 197 210 216
179 217 124 322 293 32 13 79 325 180 32 89 262 88 142 140 251 194 153 220 155 154 122 127 131 119 141 144 149 138 151 146 152 154 163 159 158 156 154 160 156 150 151 150 141 137 144 151 160 166 170 162 175 197 226 165 181 176 178 166 172 183 189 189 187 180 165 174 177 173 171 166 170 175 170 164 173 184 173 183 186 196 202 189 203 212 214
134 68 83 41 22 31 10 19 323 34 74 344 41 121 118 239 196 179 176 180 150 142 141 126 139 132 142 129 128 118 136 146 149 137 128 129 131 133 126 133 152 148 126 127 136 142 153 164 162 167 179 167 175 219 175 166 179 168 166 168 179 193 188 182 177 158 165 170 166 170 171 184 185 181 177 179 183 178 182 195 195 199 201 196 207 207 218
119 274 75 41 93 105 355 337 333 348 345 284 303 226 150 165 155 193 58 130 145 159 142 156 148 144 138 136 143 142 135 145 152 153 149 150 155 154 161 163 142 133 131 137 155 161 178 200 179 179 183 202 214 187 144 163 147 153 167 185 193 186 186 180 168 166 176 181 176 172 177 176 179 176 175 179 181 182 189 193 199 204 204 200 206 208 216
137 155 136 238 38 22 282 247 185 206 238 266 292 344 57 79 82 100 87 94 107 131 136 151 140 153 156 145 157 146 152 152 153 150 150 149 146 151 133 143 145 135 151 164 172 176 197 205 190 186 192 212 214 166 69 111 133 140 164 184 200 211 202 182 181 182 187 178 174 182 193 184 186 190 188 185 190 197 192 195 193 203 201 205 206 205 208
97 46 81 62 78 352 293 296 279 249 223 223 252 280 50 67 86 71 48 55 140 144 172 139 137 143 177 164 157 151 149 142 147 162 157 164 159 149 144 160 162 169 174 179 190 184 210 195 176 184 206 207 145 164 138 106 120 138 167 173 181 192 168 164 188 174 183 177 188 184 193 208 231 219 197 199 211 228 246 211 215 207 204 214 214 208 189
193 190 182 170 133 223 228 236 225 225 227 216 219 151 159 134 124 124 99 44 24 66 133 148 146 159 172 164 150 156 165 171 166 152 155 151 148 152 158 137 156 153 171 182 184 198 205 179 171 173 174 172 161 154 140 130 124 140 157 155 182 201 169 173 172 158 182 188 179 180 182 201 224 273 270 223 218 221 251 247 229 233 222 222 212 186 197
217 174 168 193 158 170 199 200 212 211 213 193 197 196 211 189 164 153 139 120 81 95 7 70 148 163 165 175 150 147 159 185 180 170 158 159 162 171 156 140 159 184 194 167 179 196 175 87 83 98 96 114 119 130 135 149 151 166 166 185 198 201 182 197 187 183 180 190 190 189 188 184 197 216 255 288 249 236 231 231 241 242 238 235 220 204 196
142 171 168 184 166 183 218 204 198 202 195 181 203 216 193 171 160 157 150 157 150 166 187 305 83 150 147 158 147 158 151 143 139 148 146 144 151 153 159 167 179 175 193 182 173 112 95 106 102 95 83 64 88 103 123 144 156 166 180 186 211 212 202 201 187 186 185 184 179 187 199 183 190 202 222 241 274 252 241 239 236 238 243 246 242 230 219
194 181 170 183 190 197 212 187 189 194 190 183 199 202 170 144 154 149 146 154 154 155 168 202 261 82 128 133 139 149 151 156 139 130 127 129 136 142 157 158 178 180 179 163 152 143 125 115 103 99 87 46 32 36 71 117 136 154 171 182 214 229 186 181 180 180 176 182 186 181 194 190 197 189 205 223 242 263 252 237 237 237 236 238 241 242 239
140 154 160 148 119 143 111 60 219 214 208 175 147 96 131 138 152 138 153 146 140 139 145 149 158 192 130 122 111 120 108 128 148 127 121 124 119 114 129 155 152 124 118 108 101 100 97 103 110 95 79 27 9 354 19 73 112 139 152 156 159 163 342 162 157 173 178 182 177 189 186 191 194 193 208 206 226 238 223 233 243 241 238 238 240 241 243
137 147 125 109 155 212 179 165 204 199 149 122 131 111 111 119 119 118 114 99 104 102 119 135 148 162 140 139 126 126 151 150 98 101 121 124 133 162 155 123 107 106 105 95 77 73 95 96 89 81 66 8 351 355 17 45 71 70 71 73 69 66 58 93 132 154 160 157 163 166 171 184 192 200 209 217 209 231 236 218 222 230 251 292 287 260 256
146 165 156 160 194 198 193 160 92 118 127 132 122 114 103 86 85 83 80 75 43 46 57 88 118 121 121 118 124 93 94 119 148 136 108 104 98 81 75 83 85 92 91 87 85 72 79 85 89 87 51 5 357 3 24 57 73 79 80 88 83 87 77 68 81 94 108 119 133 150 162 163 161 171 155 151 171 194 9 318 298 313 330 6 63 322 294
167 150 23 100 142 123 123 125 92 90 89 77 98 112 111 102 121 124 154 188 183 108 100 15 60 96 127 136 118 141 146 146 152 162 114 78 58 56 62 79 85 89 93 94 78 70 85 88 93 83 46 13 6 4 38 68 83 89 92 101 102 103 95 92 89 91 93 82 92 106 111 108 110 110 113 118 123 144 174 211 240 273 250 275 353 322 300
140 107 80 77 82 103 105 125 146 136 135 145 126 122 144 142 147 157 161 177 155 137 201 144 106 99 103 130 149 148 161 178 159 105 80 65 53 43 55 93 92 77 86 64 52 61 81 79 82 79 43 1 359 6 53 72 77 81 80 73 86 104 115 111 101 107 98 99 98 97 98 109 113 124 134 135 152 149 175 199 247 228 255 271 266 257 243
101 84 89 74 64 59 94 118 103 105 110 112 117 102 67 83 84 63 143 161 157 151 157 141 151 150 163 175 145 115 109 93 90 90 82 64 45 28 12 9 117 142 101 93 70 75 85 82 77 73 36 14 359 14 68 88 96 95 87 82 90 119 124 122 118 107 109 104 100 98 106 103 117 112 127 121 133 148 183 200 217 247 256 246 231 243 250
102 77 65 52 77 102 92 86 109 136 144 139 116 149 169 155 188 222 241 282 91 125 130 124 141 159 175 161 133 114 102 102 97 90 80 64 49 31 35 57 75 85 96 83 66 73 84 86 72 56 47 20 22 17 53 111 115 95 99 105 92 70 104 113 100 107 97 109 111 110 124 116 124 127 139 153 175 192 198 205 236 247 246 253 256 257 263
135 113 302 247 333 65 189 227 177 204 168 167 201 188 170 164 149 169 187 171 101 77 101 117 134 142 143 134 126 120 114 109 103 97 88 76 61 51 58 70 80 88 85 75 72 66 75 83 87 83 68 51 39 27 26 47 80 97 99 95 92 92 87 115 120 105 109 110 115 132 116 129 134 124 161 163 171 184 209 244 260 269 274 276 279 286 282
169 184 194 192 177 192 204 221 204 201 221 220 188 156 153 153 153 142 119 98 107 105 109 129 119 114 112 115 120 126 130 122 122 123 123 115 102 89 82 84 83 80 72 64 60 59 56 70 88 84 77 66 55 42 41 54 70 73 85 97 108 105 94 83 101 123 128 135 136 128 134 131 133 146 145 149 166 187 237 265 276 281 281 286 286 291 289
153 96 65 82 54 88 156 167 178 191 184 187 208 169 109 79 83 94 86 83 76 94 88 87 86 82 91 99 103 126 130 128 134 133 140 131 131 123 114 102 92 82 72 58 58 54 60 78 102 96 80 69 60 49 48 50 60 71 63 81 92 98 94 86 84 84 102 115 121 132 137 142 195 142 149 122 93 84 269 272 264 268 273 280 282 285 279
39 89 71 56 45 58 71 59 52 89 146 146 125 108 80 42 50 51 58 59 41 40 72 96 101 89 73 79 87 86 95 101 110 119 125 127 129 125 115 109 107 99 95 75 52 50 39 39 58 92 100 81 65 47 54 62 64 69 73 85 88 86 85 86 77 68 67 78 59 82 104 104 92 70 66 60 48 305 278 281 276 279 274 271 275 278 274
8 47 76 71 51 53 61 53 18 38 66 76 81 87 82 48 58 60 65 53 45 45 45 93 87 79 80 69 79 71 62 74 99 112 121 123 121 112 110 108 102 114 105 88 37 68 35 42 14 45 89 84 83 61 53 75 84 78 74 78 88 101 99 93 97 93 46 84 92 60 61 69 55 328 282 206 244 254 253 257 268 271 271 272 275 277 282
38 31 42 50 49 57 53 43 38 63 90 82 59 61 70 78 67 73 68 53 33 23 41 64 87 103 99 80 63 59 54 58 89 104 109 113 122 110 89 83 72 84 93 133 127 70 52 47 43 48 60 75 76 66 65 62 55 64 77 79 83 85 92 101 92 113 88 100 103 113 98 120 165 274 288 266 235 238 249 263 267 269 274 276 275 274 274
59 52 54 54 57 57 61 51 46 43 48 86 90 65 49 68 75 79 67 54 31 40 77 91 100 88 81 84 81 64 52 50 78 100 97 85 76 82 80 83 73 67 96 86 76 58 51 51 56 69 78 79 79 70 54 45 49 63 71 73 65 85 86 92 111 99 116 107 107 124 148 217 215 224 266 278 276 271 268 260 259 266 273 276 283 281 280
59 54 44 45 48 41 45 52 45 46 38 43 60 54 14 50 62 81 79 66 34 45 79 109 98 97 97 99 98 84 47 43 69 90 96 98 96 97 95 56 37 15 23 66 69 72 57 49 62 88 95 93 106 86 67 42 22 68 77 81 70 68 84 77 80 99 106 122 162 151 151 229 247 253 248 258 271 272 272 272 275 273 272 273 272 273 274
54 57 60 59 58 54 59 59 53 41 35 31 33 23 21 36 44 68 55 53 29 35 42 64 99 91 90 100 102 101 75 51 55 54 73 101 95 95 94 83 10 47 27 64 91 80 74 42 65 86 97 85 63 90 91 74 38 65 87 94 87 104 105 129 150 154 172 241 180 194 207 224 237 246 249 253 257 259 261 262 264 262 257 262 267 269 269
25 47 68 66 64 66 69 74 80 61 46 36 28 30 31 37 60 71 61 57 53 51 56 52 66 94 100 97 96 88 69 56 60 53 51 74 95 109 100 138 153 103 96 87 81 96 88 63 47 57 66 93 88 73 96 93 74 63 93 116 128 110 105 77 116 246 257 201 216 224 270 240 232 253 260 256 261 259 261 260 263 262 263 259 260 262 264
23 35 49 62 68 65 72 81 83 89 78 49 39 36 41 49 64 68 66 67 71 76 75 80 83 89 96 98 95 87 80 78 77 79 65 54 55 21 116 154 125 110 78 85 84 86 91 89 77 69 61 71 95 143 233 261 174 148 139 232 172 176 185 185 213 231 210 238 250 249 239 242 248 250 253 254 254 256 257 256 255 259 260 257 257 261 261
39 50 57 67 70 72 74 78 77 73 72 49 33 38 44 48 51 67 78 82 80 77 90 90 90 92 96 99 97 96 97 93 96 96 95 74 51 29 57 91 116 96 59 41 44 84 91 100 100 116 122 125 135 172 320 290 282 189 193 183 209 207 216 238 235 222 231 238 236 235 234 238 236 238 239 248 254 257 253 252 254 256 260 261 259 260 263
36 48 51 53 57 58 55 58 74 81 87 91 64 52 44 49 50 53 76 85 87 88 89 91 87 77 77 76 86 91 88 82 69 75 105 92 80 52 94 102 106 100 62 53 17 77 101 117 119 96 50 17 266 222 263 277 263 253 238 205 199 212 226 225 226 231 229 231 234 237 238 238 237 237 239 242 243 246 252 254 260 258 261 267 267 269 267
54 48 55 67 66 66 69 89 97 114 112 95 76 54 41 41 50 50 47 65 73 68 68 72 77 76 91 102 100 98 92 82 68 69 112 147 154 178 137 101 81 85 59 47 349 14 136 137 91 325 281 255 245 235 233 239 242 244 245 233 220 215 216 223 231 234 234 233 236 235 236 240 242 244 239 242 244 249 254 257 261 262 256 261 265 264 264
85 75 67 77 81 76 82 84 94 78 69 70 66 56 28 37 57 66 66 69 79 78 73 72 73 61 57 77 108 113 102 79 49 66 79 71 80 88 102 96 103 67 52 18 11 349 85 137 269 265 256 255 243 238 255 263 252 246 249 248 236 230 233 234 233 237 237 239 238 237 236 236 237 241 248 253 256 257 264 266 268 266 264 263 263 265 265
82 80 69 66 70 60 62 64 68 67 67 81 106 89 77 68 70 66 66 71 69 68 64 59 61 52 46 53 58 76 98 121 84 11 90 91 104 108 99 115 96 84 352 296 278 258 253 252 254 261 263 265 261 248 249 248 247 250 247 247 248 249 248 252 254 246 247 244 243 243 247 250 250 246 245 242 248 250 252 255 261 265 262 258 262 261 264
90 103 102 83 69 68 77 81 83 81 79 87 91 99 100 90 81 68 59 58 63 60 61 56 58 49 49 57 46 37 21 17 121 166 159 116 68 85 136 144 237 232 250 261 247 266 248 228 234 246 264 266 268 271 271 265 254 246 248 248 248 248 245 243 245 241 242 247 246 245 246 246 247 245 251 253 255 256 258 259 260 258 261 263 266 267 265
91 79 64 56 56 45 58 85 80 88 91 80 75 70 318 47 64 50 58 54 68 75 66 58 47 46 61 51 52 52 34 37 47 82 102 120 109 245 240 218 244 238 233 240 251 258 249 225 231 253 260 264 268 264 255 250 245 245 245 249 252 252 250 250 252 253 247 249 255 255 255 253 251 248 248 248 251 253 256 258 262 265 270 270 270 270 271
84 78 79 85 86 80 69 78 90 84 74 68 40 17 50 69 79 65 47 14 32 79 73 55 59 52 14 35 89 82 94 126 91 266 180 186 170 205 219 229 243 240 247 254 268 275 301 322 305 285 269 271 264 263 263 263 263 266 266 262 262 263 260 258 254 254 256 251 247 246 244 243 244 247 249 251 257 261 263 266 269 271 270 269 267 266 267
94 100 91 95 92 90 81 69 64 61 61 55 47 50 62 84 89 67 46 32 43 38 56 87 37 18 76 2 31 15 11 339 292 276 217 219 247 293 265 234 230 246 245 239 251 268 266 256 252 248 248 249 261 272 280 286 280 275 270 265 260 261 259 255 253 255 255 257 257 259 260 258 256 259 260 258 258 262 266 267 270 271 271 270 269 268 269